Regional Weather Roundup
Issued by NWS

Home | Current Version | Previous Version | Text Only | Print | Product List | Glossary Off
Versions: 1 2 3 4 5 6 7 8 9 10 11 12 13 14 15 16 17 18 19 20 21 22 23 24 25 26 27 28 29 30 31 32 33 34 35 36 37 38 39 40 41 42 43 44 45 46 47 48 49 50

000
ASUS43 KMKX 071020
RWRWI

WISCONSIN REGIONAL WEATHER ROUNDUP
NATIONAL WEATHER SERVICE MILWAUKEE/SULLIVAN WI
400 AM CST SUN FEB 07 2016

NOTE: "FAIR" INDICATES FEW OR NO CLOUDS BELOW 12,000 FEET WITH NO
SIGNIFICANT WEATHER AND/OR OBSTRUCTIONS TO VISIBILITY.

WIZ001-002-006>008-014>016-023>028-071100-
NORTHWEST WISCONSIN

CITY           SKY/WX    TMP DP  RH WIND       PRES   REMARKS
SUPERIOR ARPT  MOCLDY    33  29  88 SW7       29.54S WCI  26
ASHLAND        PTCLDY    32  28  85 S12       29.56F WCI  23
HAYWARD        CLOUDY    31  26  82 S14       29.59F WCI  21
SIREN          CLOUDY    32  30  90 S9        29.56F WCI  25
CUMBERLAND     CLOUDY    30  27  86 S7        29.60F WCI  23
RICE LAKE      LGT SNOW  31  28  87 SE8       29.63F WCI  24
CHETEK         FLURRIES  32  28  86 SE7       29.62F WCI  26
LADYSMITH      CLOUDY    30  28  90 S6        29.65F WCI  24
EAU CLAIRE     CLOUDY    33  27  78 S7        29.66F WCI  27
MENOMONIE      CLOUDY    33  28  80 S5        29.66F WCI  29
NEW RICHMOND   CLOUDY    31  26  83 SW10      29.63F WCI  22
OSCEOLA        CLOUDY    32  28  87 S7        29.65S WCI  25
$$

WIZ003>005-009-010-017-018-071100-
NORTH CENTRAL WISCONSIN

CITY           SKY/WX    TMP DP  RH WIND       PRES   REMARKS
MANITOWISH WTR CLOUDY    28  27  96 S10       29.61F WCI  19
ARBOR VITAE    CLOUDY    32  29  90 SW9G17    29.62F WCI  24
WOODRUFF       CLOUDY    32  29  90 SW9G17    29.62F WCI  24
RHINELANDER    CLOUDY    29  25  85 SW13      29.66S WCI  19
EAGLE RIVER    CLOUDY    28  25  86 SW13      29.64R WCI  18
LAND O LAKES   CLOUDY    29  27  91 SW9G17    29.62F WCI  20
PHILLIPS       LGT SNOW  29  27  92 SW7       29.63F WCI  22
TOMAHAWK       CLOUDY    28  26  91 CALM      29.66F
MEDFORD        CLOUDY    30  28  94 S9        29.66F WCI  21
MERRILL        CLOUDY    30  28  92 S7        29.69S WCI  23
$$

WIZ029-030-035-036-043>047-071100-
CENTRAL WISCONSIN

CITY           SKY/WX    TMP DP  RH WIND       PRES   REMARKS
WAUSAU         CLOUDY    32  28  85 S7        29.68F WCI  26
MOSINEE        CLOUDY    30  30 100 CALM      29.71R
MARSHFIELD     CLOUDY    32  26  78 S10       29.67F WCI  24
STEVENS POINT  CLOUDY    31  28  87 SW8       29.71S WCI  23
WAUPACA        CLOUDY    35  29  80 S7        29.74F WCI  29
WAUTOMA        CLOUDY    35  31  86 S8        29.73F WCI  28
WISC RAPIDS    CLOUDY    33  27  78 SW8       29.73F WCI  26
CAMP DOUGLAS   CLOUDY    36  36  99 SW9G20    29.70F WCI  29
$$

WIZ011>013-019>022-031-037>040-048>050-071100-
NORTHEAST WISCONSIN

CITY           SKY/WX    TMP DP  RH WIND       PRES   REMARKS
ANTIGO         CLOUDY    28  27  96 W10       29.70R WCI  19
SHAWANO        CLOUDY    33  28  82 S3        29.73F
OCONTO         CLOUDY    32  29  90 S6        29.74F WCI  26
STURGEON BAY   CLOUDY    32  27  80 S12       29.76F WCI  23
GREEN BAY      CLOUDY    36  30  79 S13       29.74F WCI  27
MANITOWOC      CLOUDY    34  30  85 S10       29.79F WCI  26
APPLETON       CLOUDY    34  28  80 S15       29.72F WCI  24
CLINTONVILLE   CLOUDY    32  28  86 SW7       29.74F WCI  26
OSHKOSH        CLOUDY    35  29  78 S18       29.74F WCI  24
$$

WIZ032>034-041-042-053>061-071100-
SOUTHWEST WISCONSIN

CITY           SKY/WX    TMP DP  RH WIND       PRES   REMARKS
LA CROSSE      CLOUDY    36  29  75 S7        29.73F WCI  30
SPARTA         CLOUDY    35  30  82 SW3       29.73F
VIROQUA        CLOUDY    34  30  85 SW14      29.72F WCI  25
BOSCOBEL       CLOUDY    38  31  76 SW13G20   29.77F WCI  30
PRAIRIE DU CHI CLOUDY    38  28  67 SW8       29.79S WCI  32
PLATTEVILLE    CLOUDY    36  32  84 S17       29.79F WCI  26
$$

WIZ056-057-062-063-064-067-068-071100-
SOUTH CENTRAL WISCONSIN

CITY           SKY/WX    TMP DP  RH WIND       PRES   REMARKS
REEDSBURG      CLOUDY    36  30  80 SW13      29.75F WCI  27
BARABOO/DELLS  CLOUDY    35  29  77 SW13      29.73F WCI  27
LONE ROCK      CLOUDY    38  29  70 SW7       29.78F WCI  33
MINERAL POINT  CLOUDY    36  32  87 S16       29.77F WCI  26
MADISON        CLOUDY    36  29  75 SW10G23   29.79F WCI  28
MIDDLETON      CLOUDY    38  31  73 SW10      29.79F WCI  31
WATERTOWN      CLOUDY    36  32  85 S12       29.80F WCI  28
MONROE         CLOUDY    34  32  93 S17       29.80F WCI  23
JANESVILLE     CLOUDY    37  32  81 S12       29.84F WCI  30
$$

WIZ051-052-058>065-066-070>072-071100-
SOUTHEAST WISCONSIN

CITY           SKY/WX    TMP DP  RH WIND       PRES   REMARKS
MILWAUKEE      CLOUDY    35  29  78 S8        29.85F WCI  29
WAUKESHA       PTCLDY    32  28  86 S6        29.84F WCI  26
MILWAUKEE/TIMM CLOUDY    34  28  80 S8        29.85F WCI  27
RACINE         CLOUDY    37  28  70 S13       29.88F WCI  29
BURLINGTON     CLOUDY    34  28  80 S10       29.86F WCI  26
KENOSHA        CLOUDY    37  29  72 SW12      29.88F WCI  29
FOND DU LAC    CLOUDY    37  29  72 S18G26    29.76F WCI  27
SHEBOYGAN      CLOUDY    33  28  81 S12       29.80F WCI  24
WEST BEND      MOCLDY    36  30  80 S12G18    29.80F WCI  27
JUNEAU         PTCLDY    35  29  79 S18G25    29.80F WCI  25
$$

LSZ147-162-071100-
LAKE SUPERIOR

STATION/POSITION TIME  TEMP    WIND        PRES    WAVE
                       AIR SEA DIR/SP/G            HT/PER
                 (UTC) (F)     (DEG/KT/KT) (MB)    (FT/S)
DEVILS ISLAND    1000   32     180/  9/ 12 1001.4F
PORT WING        0900          190/ 10/ 12 1002.0F
SAXON HARBOR     0940   34                 1001.7F
$$

LMZ867-665-643>646-071100-
LAKE MICHIGAN

STATION/POSITION TIME  TEMP    WIND        PRES    WAVE
                       AIR SEA DIR/SP/G            HT/PER
                 (UTC) (F)     (DEG/KT/KT) (MB)    (FT/S)
CHAMBERS ISLAND  0900   29     170/  7/ 16 1009.1F
ALGOMA LAKESHORE 0911          230/ 14/ 17   N/A
KEWAUNEE LAKESHO 0900   33     200/ 10/ 13 1009.4F
SHEBOYGAN LAKESH 1000   35     180/ 19/ 21 1010.0F
PORT WASHINGTON  0900   34     200/  4/  7 1012.5
MILWAUKEE LAKESH 0910   36     210/  9/ 13   N/A
KENOSHA   LAKESH 1000   39     200/ 12/ 16 1011.9F
$$

TC  - TEMPERATURE IN CELSIUS
VSB - VISIBILITY IN STATUTE MILES
WCI - WIND CHILL INDEX
HX  - HEAT INDEX




USA.gov is the U.S. government's official web portal to all federal, state and local government web resources and services.